Terminal Aerodrome Forecast
Issued by NWS

Home | Current Version | Previous Version | Text Only | Print | Product List | Glossary On
Versions: 1 2 3 4 5 6 7 8 9 10 11 12 13 14 15 16 17 18 19
000
FTUS43 KDVN 020100 CCA
TAFBRL
TAF COR
KBRL 020108Z 0201/0224 VRB04KT P6SM SCT030 BKN050
      TEMPO 0201/0203 VRB15G25KT 2SM TSRA BKN035CB
     FM020900 00000KT 5SM BR SKC
      TEMPO 0209/0212 3SM BR
     FM021500 03004KT P6SM SCT050=

USA.gov is the U.S. government's official web portal to all federal, state and local government web resources and services.